Location: Clanezzo
(45.7500°N, 9.6000°E)
Time: 04:22:45
(UTC+00:00)

RESURS DK-1 - Pass Details

Date: 12 May 2021
Orbit: 553 x 564 km, 69.9° (Epoch: 18 June)

Event Time Altitude Azimuth Distance (km) Brightness Sun altitude
Rises 22:55:49 0° 332° (NNW) 2,765 7.0 -25.7°
Reaches altitude 10° 22:58:02 10° 334° (NNW) 1,866 5.9 -25.7°
Enters shadow 23:01:28 59° 345° (NNW) 658 2.9 -25.8°
